TimePST,TemperatureF,Dew PointF,Humidity,Sea Level PressureIn,VisibilityMPH,Wind Direction,Wind SpeedMPH,Gust SpeedMPH,PrecipitationIn,Events,Conditions,WindDirDegrees,DateUTC
12:15 AM,30.2,19.4,64,30.32,10.0,Calm,Calm,-,N/A,,Clear,0,2012-12-04 08:15:00
12:35 AM,32.0,19.4,60,30.32,10.0,SW,3.5,-,N/A,,Clear,230,2012-12-04 08:35:00
12:55 AM,32.0,19.4,60,30.33,10.0,Calm,Calm,-,N/A,,Clear,0,2012-12-04 08:55:00
1:15 AM,32.0,19.4,60,30.32,10.0,Calm,Calm,-,N/A,,Clear,0,2012-12-04 09:15:00
1:35 AM,32.0,19.4,60,30.33,10.0,Calm,Calm,-,N/A,,Clear,0,2012-12-04 09:35:00
1:55 AM,32.0,19.4,60,30.33,10.0,Calm,Calm,-,N/A,,Clear,0,2012-12-04 09:55:00
2:15 AM,32.0,19.4,60,30.33,10.0,Calm,Calm,-,N/A,,Clear,0,2012-12-04 10:15:00
2:35 AM,32.0,19.4,60,30.33,10.0,Calm,Calm,-,N/A,,Clear,0,2012-12-04 10:35:00
2:55 AM,30.2,19.4,64,30.33,10.0,Calm,Calm,-,N/A,,Clear,0,2012-12-04 10:55:00
3:15 AM,30.2,19.4,64,30.33,10.0,Calm,Calm,-,N/A,,Clear,0,2012-12-04 11:15:00
3:35 AM,30.2,17.6,60,30.33,10.0,Calm,Calm,-,N/A,,Clear,0,2012-12-04 11:35:00
3:55 AM,30.2,19.4,64,30.34,10.0,Calm,Calm,-,N/A,,Clear,0,2012-12-04 11:55:00
4:15 AM,32.0,19.4,60,30.35,10.0,Calm,Calm,-,N/A,,Clear,0,2012-12-04 12:15:00
4:35 AM,32.0,17.6,55,30.35,10.0,Calm,Calm,-,N/A,,Clear,0,2012-12-04 12:35:00
4:55 AM,32.0,19.4,60,30.35,10.0,Calm,Calm,-,N/A,,Clear,0,2012-12-04 12:55:00
5:15 AM,30.2,19.4,64,30.36,10.0,West,3.5,-,N/A,,Clear,260,2012-12-04 13:15:00
5:35 AM,30.2,17.6,60,30.36,10.0,Calm,Calm,-,N/A,,Clear,0,2012-12-04 13:35:00
5:55 AM,30.2,17.6,60,30.37,10.0,Calm,Calm,-,N/A,,Clear,0,2012-12-04 13:55:00
6:15 AM,30.2,17.6,60,30.38,10.0,Calm,Calm,-,N/A,,Clear,0,2012-12-04 14:15:00
6:35 AM,28.4,19.4,69,30.37,10.0,Calm,Calm,-,N/A,,Clear,0,2012-12-04 14:35:00
6:55 AM,28.4,17.6,64,30.38,10.0,Calm,Calm,-,N/A,,Clear,0,2012-12-04 14:55:00
7:15 AM,28.4,17.6,64,30.38,10.0,West,3.5,-,N/A,,Clear,270,2012-12-04 15:15:00
7:55 AM,32.0,19.4,60,30.38,10.0,Calm,Calm,-,N/A,,Clear,0,2012-12-04 15:55:00
8:15 AM,37.4,24.8,60,30.38,10.0,Calm,Calm,-,N/A,,Clear,0,2012-12-04 16:15:00
8:35 AM,41.0,23.0,49,30.38,10.0,Calm,Calm,-,N/A,,Clear,0,2012-12-04 16:35:00
8:55 AM,42.8,19.4,39,30.39,10.0,Calm,Calm,-,N/A,,Clear,0,2012-12-04 16:55:00
9:15 AM,48.2,12.2,24,30.39,10.0,West,3.5,-,N/A,,Clear,270,2012-12-04 17:15:00
9:35 AM,48.2,23.0,37,30.39,10.0,West,5.8,-,N/A,,Clear,270,2012-12-04 17:35:00
9:55 AM,50.0,14.0,24,30.39,10.0,West,8.1,-,N/A,,Clear,270,2012-12-04 17:55:00
10:15 AM,53.6,17.6,24,30.39,10.0,West,6.9,-,N/A,,Clear,270,2012-12-04 18:15:00
10:35 AM,57.2,12.2,17,30.39,10.0,West,5.8,-,N/A,,Clear,260,2012-12-04 18:35:00
10:55 AM,59.0,17.6,20,30.39,10.0,West,4.6,-,N/A,,Clear,270,2012-12-04 18:55:00
11:15 AM,59.0,15.8,19,30.38,10.0,West,3.5,-,N/A,,Clear,280,2012-12-04 19:15:00
11:35 AM,60.8,15.8,17,30.37,10.0,Calm,Calm,-,N/A,,Clear,0,2012-12-04 19:35:00
11:55 AM,62.6,8.6,12,30.36,10.0,East,4.6,-,N/A,,Clear,90,2012-12-04 19:55:00
12:15 PM,59.0,23.0,25,30.35,10.0,West,5.8,-,N/A,,Clear,270,2012-12-04 20:15:00
12:35 PM,59.0,21.2,23,30.35,10.0,West,5.8,-,N/A,,Clear,260,2012-12-04 20:35:00
12:55 PM,59.0,23.0,25,30.34,10.0,Calm,Calm,-,N/A,,Clear,0,2012-12-04 20:55:00
1:15 PM,59.0,26.6,29,30.34,10.0,WSW,4.6,-,N/A,,Clear,240,2012-12-04 21:15:00
1:35 PM,55.4,26.6,33,30.34,10.0,WSW,4.6,-,N/A,,Clear,250,2012-12-04 21:35:00
1:55 PM,59.0,24.8,27,30.33,10.0,SW,3.5,-,N/A,,Clear,230,2012-12-04 21:55:00
2:15 PM,59.0,26.6,29,30.33,10.0,West,5.8,-,N/A,,Clear,270,2012-12-04 22:15:00
2:35 PM,57.2,26.6,31,30.34,10.0,WSW,6.9,-,N/A,,Clear,250,2012-12-04 22:35:00
2:55 PM,55.4,28.4,36,30.34,10.0,WSW,5.8,-,N/A,,Clear,250,2012-12-04 22:55:00
3:15 PM,53.6,28.4,38,30.34,10.0,West,11.5,-,N/A,,Clear,270,2012-12-04 23:15:00
3:35 PM,53.6,28.4,38,30.35,10.0,WSW,3.5,-,N/A,,Clear,240,2012-12-04 23:35:00
3:55 PM,51.8,21.2,30,30.35,10.0,WSW,6.9,-,N/A,,Clear,250,2012-12-04 23:55:00
4:15 PM,51.8,17.6,26,30.35,10.0,WSW,4.6,-,N/A,,Clear,240,2012-12-05 00:15:00
4:35 PM,50.0,14.0,24,30.35,10.0,WSW,4.6,-,N/A,,Clear,240,2012-12-05 00:35:00
4:55 PM,50.0,12.2,22,30.35,10.0,WSW,6.9,-,N/A,,Clear,250,2012-12-05 00:55:00
5:15 PM,46.4,15.8,29,30.35,10.0,WSW,4.6,-,N/A,,Clear,240,2012-12-05 01:15:00
5:35 PM,42.8,17.6,36,30.36,10.0,SW,4.6,-,N/A,,Clear,220,2012-12-05 01:35:00
5:55 PM,41.0,17.6,39,30.36,10.0,Calm,Calm,-,N/A,,Clear,0,2012-12-05 01:55:00
6:15 PM,41.0,19.4,42,30.36,10.0,Calm,Calm,-,N/A,,Clear,0,2012-12-05 02:15:00
6:35 PM,39.2,19.4,45,30.36,7.0,Calm,Calm,-,N/A,,Clear,0,2012-12-05 02:35:00
6:55 PM,37.4,19.4,48,30.36,10.0,Calm,Calm,-,N/A,,Clear,0,2012-12-05 02:55:00
7:15 PM,35.6,19.4,52,30.37,7.0,Calm,Calm,-,N/A,,Clear,0,2012-12-05 03:15:00
7:35 PM,33.8,19.4,56,30.37,10.0,Calm,Calm,-,N/A,,Clear,0,2012-12-05 03:35:00
7:55 PM,32.0,17.6,55,30.38,10.0,Calm,Calm,-,N/A,,Clear,0,2012-12-05 03:55:00
8:15 PM,32.0,17.6,55,30.37,10.0,Calm,Calm,-,N/A,,Clear,0,2012-12-05 04:15:00
8:35 PM,32.0,17.6,55,30.37,10.0,Calm,Calm,-,N/A,,Clear,0,2012-12-05 04:35:00
8:55 PM,32.0,17.6,55,30.37,10.0,Calm,Calm,-,N/A,,Clear,0,2012-12-05 04:55:00
9:15 PM,30.2,15.8,55,30.38,10.0,Calm,Calm,-,N/A,,Clear,0,2012-12-05 05:15:00
9:35 PM,30.2,15.8,55,30.38,10.0,Calm,Calm,-,N/A,,Clear,0,2012-12-05 05:35:00
9:55 PM,30.2,15.8,55,30.37,10.0,Calm,Calm,-,N/A,,Clear,0,2012-12-05 05:55:00
10:15 PM,28.4,15.8,59,30.37,10.0,Calm,Calm,-,N/A,,Clear,0,2012-12-05 06:15:00
10:35 PM,28.4,17.6,64,30.38,10.0,Calm,Calm,-,N/A,,Clear,0,2012-12-05 06:35:00
10:55 PM,28.4,14.0,55,30.38,10.0,Calm,Calm,-,N/A,,Clear,0,2012-12-05 06:55:00
11:15 PM,28.4,12.2,51,30.37,10.0,Calm,Calm,-,N/A,,Clear,0,2012-12-05 07:15:00
11:55 PM,28.4,14.0,55,30.37,10.0,WSW,3.5,-,N/A,,Clear,240,2012-12-05 07:55:00